Weather History for Ocean City, MD

Change the Weather History Date:

Saturday, April 5, 2014

  Actual Average (KSBY) Record (KSBY)
Temperature  
Mean Temperature 54 °F 51 °F  
Max Temperature 63 °F 62 °F 82 °F (2010)
Min Temperature 45 °F 40 °F 24 °F (1965)
Degree Days  
Heating Degree Days 10 14  
Month to date heating degree days 75  
Since 1 July heating degree days 4010  
Cooling Degree Days 0 0  
Month to date cooling degree days 0  
Year to date cooling degree days 2  
Growing Degree Days 4 (Base 50)    
Moisture  
Dew Point 42 °F    
Average Humidity 77    
Maximum Humidity 97    
Minimum Humidity 34    
Precipitation  
Precipitation 0.09 in 0.13 in 1.94 in (1984)
Month to date precipitation 0.68  
Year to date precipitation 12.06  
Snow  
Snow 0.00 in 0.10 in T in (1944)
Month to date snowfall 0.1  
Since 1 July snowfall 9.2  
Snow Depth -    
Sea Level Pressure  
Sea Level Pressure 29.86 in    
Wind  
Wind Speed 6 mph (NNW)    
Max Wind Speed 15 mph    
Max Gust Speed 24 mph    
Visibility 5 miles    
Events Fog , Rain    
T = Trace of Precipitation, MM = Missing Value Source: NWS Daily Summary

Daily Weather History Graph

Daily Weather History Graph

Search for Another Location

Airport:

Trip Planner

Search our weather history database for the weather conditions in past years. The results will help you decide how hot, cold, wet, or windy it might be!

Date:

Astronomy

Apr. 05, 2014 Rise Set
Actual Time 6:39 AM EDT 7:27 PM EDT
Civil Twilight 6:12 AM EDT 7:54 PM EDT
Nautical Twilight 5:41 AM EDT 8:26 PM EDT
Astronomical Twilight 5:08 AM EDT 8:58 PM EDT
Moon 10:48 AM EDT (4/5) 12:32 AM EDT (4/5)
Length of Visible Light 13h 41m
Length of Day
12h 48m
Waxing Crescent, 34% of the Moon is Illuminated
Apr 5
Waxing Crescent
Apr 7
First Quarter
Apr 15
Full
Apr 22
Last Quarter
Apr 29
New

Hourly Weather History & Observations

Time (EDT) Temp. Windchill Dew Point Humidity Pressure Visibility Wind Dir Wind Speed Gust Speed Precip Events Conditions
12:05 AM 46.0 °F - 45.0 °F 96% 29.70 in 2.0 mi Calm Calm - N/A   Overcast
12:17 AM 46.0 °F - 44.1 °F 93% 29.70 in 1.5 mi Calm Calm - N/A   Overcast
12:34 AM 46.9 °F - 45.0 °F 93% 29.71 in 2.5 mi North - - N/A   Overcast
12:41 AM 48.0 °F - 46.9 °F 96% 29.74 in 4.0 mi NNW 8.1 mph - N/A   Mostly Cloudy
12:51 AM 48.2 °F - 46.4 °F 93% 29.72 in 4.0 mi Calm Calm - N/A   Mostly Cloudy
12:53 AM 48.9 °F - 46.9 °F 93% 29.73 in 4.0 mi North 4.6 mph - N/A   Mostly Cloudy
1:41 AM 50.0 °F - 46.9 °F 89% 29.75 in 5.0 mi NNW 15.0 mph 20.7 mph N/A   Mostly Cloudy
1:53 AM 48.9 °F - 46.9 °F 93% 29.75 in 6.0 mi NNW 12.7 mph 19.6 mph N/A   Overcast
2:19 AM 48.9 °F - 46.9 °F 93% 29.78 in 2.5 mi NW 5.8 mph - 0.05 in Rain Rain
2:24 AM 48.9 °F - 46.9 °F 93% 29.74 in 3.0 mi North 5.8 mph - 0.07 in Rain Rain
2:53 AM 48.0 °F - 46.9 °F 96% 29.72 in 4.0 mi Calm Calm - 0.09 in   Mostly Cloudy
3:53 AM 48.9 °F - 46.0 °F 90% 29.74 in 4.0 mi NW 8.1 mph 20.7 mph N/A   Partly Cloudy
4:37 AM 48.9 °F - 46.9 °F 93% 29.77 in 4.0 mi NW 5.8 mph - N/A   Mostly Cloudy
4:53 AM 48.9 °F - 48.0 °F 97% 29.77 in 2.0 mi West 3.5 mph - N/A   Overcast
5:01 AM 48.0 °F - 46.0 °F 93% 29.77 in 1.2 mi WNW 4.6 mph - N/A   Overcast
5:11 AM 48.0 °F - 46.0 °F 93% 29.77 in 0.5 mi WNW 3.5 mph - N/A Fog Fog
5:24 AM 48.0 °F - 46.9 °F 96% 29.78 in 0.2 mi West 4.6 mph - N/A Fog Fog
5:53 AM 48.0 °F - 46.0 °F 93% 29.80 in 0.2 mi West 5.8 mph - N/A Fog Fog
6:30 AM 46.9 °F - 46.0 °F 97% 29.81 in 0.5 mi NNW 6.9 mph - N/A Fog Fog
6:53 AM 46.9 °F - 46.0 °F 97% 29.84 in 0.5 mi NNW 6.9 mph - N/A Fog Fog
7:17 AM 48.0 °F - 46.9 °F 96% 29.86 in 0.2 mi North 6.9 mph - N/A Fog Fog
7:27 AM 48.0 °F - 46.9 °F 96% 29.87 in 0.5 mi North 9.2 mph - N/A Fog Fog
7:43 AM 48.0 °F - 46.9 °F 96% 29.87 in 2.0 mi NNW 8.1 mph - N/A   Overcast
7:50 AM 48.2 °F - 46.4 °F 93% 29.88 in 4.0 mi NNW 9.2 mph - N/A   Overcast
7:53 AM 48.0 °F - 46.9 °F 96% 29.88 in 4.0 mi NNW 9.2 mph - N/A   Overcast
8:05 AM 48.0 °F - 46.9 °F 96% 29.88 in 5.0 mi North 9.2 mph - N/A   Mostly Cloudy
8:51 AM 51.8 °F - 46.4 °F 82% 29.89 in 6.0 mi North 8.1 mph - N/A   Scattered Clouds
8:53 AM 51.1 °F - 46.9 °F 86% 29.90 in 6.0 mi North 9.2 mph - N/A   Scattered Clouds
9:53 AM 55.0 °F - 42.1 °F 62% 29.90 in 10.0 mi North 12.7 mph 19.6 mph N/A   Clear
10:53 AM 57.0 °F - 39.9 °F 53% 29.91 in 10.0 mi NW 13.8 mph 24.2 mph N/A   Clear
11:53 AM 60.1 °F - 39.0 °F 46% 29.91 in 10.0 mi NNW 11.5 mph 20.7 mph N/A   Clear
12:53 PM 62.1 °F - 39.0 °F 43% 29.91 in 10.0 mi WNW 10.4 mph 21.9 mph N/A   Clear
1:53 PM 62.1 °F - 34.0 °F 35% 29.93 in 10.0 mi NNW 13.8 mph 18.4 mph N/A   Clear
2:53 PM 63.0 °F - 34.0 °F 34% 29.94 in 10.0 mi West 8.1 mph - N/A   Clear
3:53 PM 51.1 °F - 42.1 °F 71% 29.95 in 10.0 mi Variable 4.6 mph - N/A   Clear
4:53 PM 62.1 °F - 34.0 °F 35% 29.96 in 10.0 mi NW 8.1 mph - N/A   Clear
5:53 PM 59.0 °F - 32.0 °F 36% 29.98 in 10.0 mi NNW 13.8 mph 20.7 mph N/A   Clear
6:53 PM 55.0 °F - 30.0 °F 38% 30.01 in 10.0 mi NNW 8.1 mph 19.6 mph N/A   Clear
7:53 PM 52.0 °F - 28.9 °F 41% 30.04 in 10.0 mi NNW 9.2 mph - N/A   Clear
8:53 PM 50.0 °F - 28.9 °F 44% 30.07 in 10.0 mi NNW 6.9 mph - N/A   Clear
9:53 PM 48.0 °F - 28.9 °F 48% 30.09 in 10.0 mi NNW 8.1 mph - N/A   Clear
10:53 PM 46.0 °F 42.5 °F 28.9 °F 51% 30.12 in 10.0 mi NNW 6.9 mph - N/A   Clear
11:53 PM 45.0 °F 41.2 °F 28.9 °F 53% 30.13 in 10.0 mi North 6.9 mph - N/A   Clear